Kuchera_Ratio
0.0 0.0 0.0 0.0 0.0 0.0 0.0 0.0 0.0 0.0 0.0 0.0 0.0 0.0 0.0 0.0 0.0 0.0 0.0 0.0 0.0 0.0 0.0 0.0 0.0 0.0 0.0 0.0 0.0 0.0 0.0 0.0 0.0 0.0 0.0 0.0 0.0 0.0 0.0 0.0 0.0 0.0 0.0 0.0 0.0 0.0 0.0 0.0 0.0 0.0 0.0 0.0 0.0 0.0 0.0 0.0 0.0 0.0 0.0 0.0 0.0 0.0 0.0 0.0 0.0 0.0 0.0 0.0 0.0 0.0 0.0 0.0 0.0 0.0 0.0 0.0 0.0 0.0 0.0 0.0 0.0 0.0 0.0 0.0 0.0 0.0 0.0 0.0
0.0 0.0 0.0 0.0 0.0 0.0 0.0 0.0 0.0 0.0 0.0 0.0 0.0 0.0 0.0 0.0 0.0 0.0 0.0 0.0 0.0 0.0 0.0 0.0 0.0 0.0 0.0 0.0 0.0 0.0 0.0 0.0 0.0 0.0 0.0 0.0 0.0 0.0 0.0 0.0 0.0 0.0 0.0 0.0 0.0 0.0 0.0 0.0 0.0 0.0 0.0 0.0 0.0 0.0 0.0 0.0 0.0 0.0 0.0 0.0 0.0 0.0 0.0 0.0 0.0 0.0 0.0 0.0 0.0 0.0 0.0 0.0 0.0 0.0 0.0 0.0 0.0 0.0 0.0 0.0 0.0 0.0 0.0 0.0 0.0 0.0 0.0 0.0
0.0 0.0 0.0 0.0 0.0 0.0 0.0 0.0 0.0 0.0 0.0 0.0 0.0 0.0 0.0 0.0 0.0 0.0 0.0 0.0 0.0 0.0 0.0 0.0 0.0 0.0 0.0 0.0 0.0 0.0 0.0 0.0 0.0 0.0 0.0 0.0 0.0 0.0 0.0 0.0 0.0 0.0 0.0 0.0 0.0 0.0 0.0 0.0 0.0 0.0 0.0 0.0 0.0 0.0 0.0 0.0 0.0 0.0 0.0 0.0 0.0 0.0 0.0 0.0 0.0 0.0 0.0 0.0 0.0 0.0 0.0 0.0 0.0 0.0 0.0 0.0 0.0 0.0 0.0 0.0 0.0 0.0 0.0 0.0 0.0 0.0 0.0 0.0
0.0 0.0 0.0 0.0 0.0 0.0 0.0 0.0 0.0 0.0 0.0 0.0 0.0 0.0 0.0 0.0 0.0 0.0 0.0 0.0 0.0 0.0 0.0 0.0 0.0 0.0 0.0 0.0 0.0 0.0 0.0 0.0 0.0 0.0 0.0 0.0 0.0 0.0 0.0 0.0 0.0 0.0 0.0 0.0 0.0 0.0 0.0 0.0 0.0 0.0 0.0 0.0 0.0 0.0 0.0 0.0 0.0 0.0 0.0 0.0 0.0 0.0 0.0 0.0 0.0 0.0 0.0 0.0 0.0 0.0 0.0 0.0 0.0 0.0 0.0 0.0 0.0 0.0 0.0 0.0 0.0 0.0 0.0 0.0 0.0 0.0 0.0 0.0
0.0 0.0 0.0 0.0 0.0 0.0 0.0 0.0 0.0 0.0 0.0 0.0 0.0 0.0 0.0 0.0 0.0 0.0 0.0 0.0 0.0 0.0 0.0 0.0 0.0 0.0 0.0 0.0 0.0 0.0 0.0 0.0 0.0 0.0 0.0 0.0 0.0 0.0 0.0 0.0 0.0 0.0 0.0 0.0 0.0 0.0 0.0 0.0 0.0 0.0 0.0 0.0 0.0 0.0 0.0 0.0 0.0 0.0 0.0 0.0 0.0 0.0 0.0 0.0 0.0 0.0 0.0 0.0 0.0 0.0 0.0 0.0 0.0 0.0 0.0 0.0 0.0 0.0 0.0 0.0 0.0 0.0 0.0 0.0 0.0 0.0 0.0 0.0
0.0 0.0 0.0 0.0 0.0 0.0 0.0 0.0 0.0 0.0 0.0 0.0 0.0 0.0 0.0 0.0 0.0 0.0 0.0 0.0 0.0 0.0 0.0 0.0 0.0 0.0 0.0 0.0 0.0 0.0 0.0 0.0 0.0 0.0 0.0 0.0 0.0 0.0 0.0 0.0 0.0 0.0 0.0 0.0 0.0 0.0 0.0 0.0 0.0 0.0 0.0 0.0 0.0 0.0 0.0 0.0 0.0 0.0 0.0 0.0 0.0 0.0 0.0 0.0 0.0 0.0 0.0 0.0 0.0 0.0 0.0 0.0 0.0 0.0 0.0 0.0 0.0 0.0 0.0 0.0 0.0 0.0 0.0 0.0 0.0 0.0 0.0 0.0
0.0 0.0 0.0 0.0 0.0 0.0 0.0 0.0 0.0 0.0 0.0 0.0 0.0 0.0 0.0 0.0 0.0 0.0 0.0 0.0 0.0 0.0 0.0 0.0 0.0 0.0 0.0 0.0 0.0 0.0 0.0 0.0 0.0 0.0 0.0 0.0 0.0 0.0 0.0 0.0 0.0 0.0 0.0 0.0 0.0 0.0 0.0 0.0 0.0 0.0 0.0 0.0 0.0 0.0 0.0 0.0 0.0 0.0 0.0 0.0 0.0 0.0 0.0 0.0 0.0 0.0 0.0 0.0 0.0 0.0 0.0 0.0 0.0 0.0 0.0 0.0 0.0 0.0 0.0 0.0 0.0 0.0 0.0 0.0 0.0 0.0 0.0 0.0
0.0 0.0 0.0 0.0 0.0 0.0 0.0 0.0 0.0 0.0 0.0 0.0 0.0 0.0 0.0 0.0 0.0 0.0 0.0 0.0 0.0 0.0 0.0 0.0 0.0 0.0 0.0 0.0 0.0 0.0 0.0 0.0 0.0 0.0 0.0 0.0 0.0 0.0 0.0 0.0 0.0 0.0 0.0 0.0 0.0 0.0 0.0 0.0 0.0 0.0 0.0 0.0 0.0 0.0 0.0 0.0 0.0 0.0 0.0 0.0 0.0 0.0 0.0 0.0 0.0 0.0 0.0 0.0 0.0 0.0 0.0 0.0 0.0 0.0 0.0 0.0 0.0 0.0 0.0 0.0 0.0 0.0 0.0 0.0 0.0 0.0 0.0 0.0
0.0 0.0 0.0 0.0 0.0 0.0 0.0 0.0 0.0 0.0 0.0 0.0 0.0 0.0 0.0 0.0 0.0 0.0 0.0 0.0 0.0 0.0 0.0 0.0 0.0 0.0 0.0 0.0 0.0 0.0 0.0 0.0 0.0 0.0 0.0 0.0 0.0 0.0 0.0 0.0 0.0 0.0 0.0 0.0 0.0 0.0 0.0 0.0 0.0 0.0 0.0 0.0 0.0 0.0 0.0 0.0 0.0 0.0 0.0 0.0 0.0 0.0 0.0 0.0 0.0 0.0 0.0 0.0 0.0 0.0 0.0 0.0 0.0 0.0 0.0 0.0 0.0 0.0 0.0 0.0 0.0 0.0 0.0 0.0 0.0 0.0 0.0 0.0
0.0 0.0 0.0 0.0 0.0 0.0 0.0 0.0 0.0 0.0 0.0 0.0 0.0 0.0 0.0 0.0 0.0 0.0 0.0 0.0 0.0 0.0 0.0 0.0 0.0 0.0 0.0 0.0 0.0 0.0 0.0 0.0 0.0 0.0 0.0 0.0 0.0 0.0 0.0 0.0 0.0 0.0 0.0 0.0 0.0 0.0 0.0 0.0 0.0 0.0 0.0 0.0 0.0 0.0 0.0 0.0 0.0 0.0 0.0 0.0 0.0 0.0 0.0 0.0 0.0 0.0 0.0 0.0 0.0 0.0 0.0 0.0 0.0 0.0 0.0 0.0 0.0 0.0 0.0 0.0 0.0 0.0 0.0 0.0 0.0 0.0 0.0 0.0
0.0 0.0 0.0 0.0 0.0 0.0 0.0 0.0 0.0 0.0 0.0 0.0 0.0 0.0 0.0 0.0 0.0 0.0 0.0 0.0 0.0 0.0 0.0 0.0 0.0 0.0 0.0 0.0 0.0 0.0 0.0 0.0 0.0 0.0 0.0 0.0 0.0 0.0 0.0 0.0 0.0 0.0 0.0 0.0 0.0 0.0 0.0 0.0 0.0 0.0 0.0 0.0 0.0 0.0 0.0 0.0 0.0 0.0 0.0 0.0 0.0 0.0 0.0 0.0 0.0 0.0 0.0 0.0 0.0 0.0 0.0 0.0 0.0 0.0 0.0 0.0 0.0 0.0 0.0 0.0 0.0 0.0 0.0 0.0 0.0 0.0 0.0 0.0
0.0 0.0 0.0 0.0 0.0 0.0 0.0 0.0 0.0 0.0 0.0 0.0 0.0 0.0 0.0 0.0 0.0 0.0 0.0 0.0 0.0 0.0 0.0 0.0 0.0 0.0 0.0 0.0 0.0 0.0 0.0 0.0 0.0 0.0 0.0 0.0 0.0 0.0 0.0 0.0 0.0 0.0 0.0 0.0 0.0 0.0 0.0 0.0 0.0 0.0 0.0 0.0 0.0 0.0 0.0 0.0 0.0 0.0 0.0 0.0 0.0 0.0 0.0 0.0 0.0 0.0 0.0 0.0 0.0 0.0 0.0 0.0 0.0 0.0 0.0 0.0 0.0 0.0 0.0 0.0 0.0 0.0 0.0 0.0 0.0 0.0 0.0 0.0
0.0 0.0 0.0 0.0 0.0 0.0 0.0 0.0 0.0 0.0 0.0 0.0 0.0 0.0 0.0 0.0 0.0 0.0 0.0 0.0 0.0 0.0 0.0 0.0 0.0 0.0 0.0 0.0 0.0 0.0 0.0 0.0 0.0 0.0 0.0 0.0 0.0 0.0 0.0 0.0 0.0 0.0 0.0 0.0 0.0 0.0 0.0 0.0 0.0 0.0 0.0 0.0 0.0 0.0 0.0 0.0 0.0 0.0 0.0 0.0 0.0 0.0 0.0 0.0 0.0 0.0 0.0 0.0 0.0 0.0 0.0 0.0 0.0 0.0 0.0 0.0 0.0 0.0 0.0 0.0 0.0 0.0 0.0 0.0 0.0 0.0 0.0 0.0
0.0 0.0 0.0 0.0 0.0 0.0 0.0 0.0 0.0 0.0 0.0 0.0 0.0 0.0 0.0 0.0 0.0 0.0 0.0 0.0 0.0 0.0 0.0 0.0 0.0 0.0 0.0 0.0 0.0 0.0 0.0 0.0 0.0 0.0 0.0 0.0 0.0 0.0 0.0 0.0 0.0 0.0 0.0 0.0 0.0 0.0 0.0 0.0 0.0 0.0 0.0 0.0 0.0 0.0 0.0 0.0 0.0 0.0 0.0 0.0 0.0 0.0 0.0 0.0 0.0 0.0 0.0 0.0 0.0 0.0 0.0 0.0 0.0 0.0 0.0 0.0 0.0 0.0 0.0 0.0 0.0 0.0 0.0 0.0 0.0 0.0 0.0 0.0
0.0 0.0 0.0 0.0 0.0 0.0 0.0 0.0 0.0 0.0 0.0 0.0 0.0 0.0 0.0 0.0 0.0 0.0 0.0 0.0 0.0 0.0 0.0 0.0 0.0 0.0 0.0 0.0 0.0 0.0 0.0 0.0 0.0 0.0 0.0 0.0 0.0 0.0 0.0 0.0 0.0 0.0 0.0 0.0 0.0 0.0 0.0 0.0 0.0 0.0 0.0 0.0 0.0 0.0 0.0 0.0 0.0 0.0 0.0 0.0 0.0 0.0 0.0 0.0 0.0 0.0 0.0 0.0 0.0 0.0 0.0 0.0 0.0 0.0 0.0 0.0 0.0 0.0 0.0 0.0 0.0 0.0 0.0 0.0 0.0 0.0 0.0 0.0
0.0 0.0 0.0 0.0 0.0 0.0 0.0 0.0 0.0 0.0 0.0 0.0 0.0 0.0 0.0 0.0 0.0 0.0 0.0 0.0 0.0 0.0 0.0 0.0 0.0 0.0 0.0 0.0 0.0 0.0 0.0 0.0 0.0 0.0 0.0 0.0 0.0 0.0 0.0 0.0 0.0 0.0 0.0 0.0 0.0 0.0 0.0 0.0 0.0 0.0 0.0 0.0 0.0 0.0 0.0 0.0 0.0 0.0 0.0 0.0 0.0 0.0 0.0 0.0 0.0 0.0 0.0 0.0 0.0 0.0 0.0 0.0 0.0 0.0 0.0 0.0 0.0 0.0 0.0 0.0 0.0 0.0 0.0 0.0 0.0 0.0 0.0 0.0
0.0 0.0 0.0 0.0 0.0 0.0 0.0 0.0 0.0 0.0 0.0 0.0 0.0 0.0 0.0 0.0 0.0 0.0 0.0 0.0 0.0 0.0 0.0 0.0 0.0 0.0 0.0 0.0 0.0 0.0 0.0 0.0 0.0 0.0 0.0 0.0 0.0 0.0 0.0 0.0 0.0 0.0 0.0 0.0 0.0 0.0 0.0 0.0 0.0 0.0 0.0 0.0 0.0 0.0 0.0 0.0 0.0 0.0 0.0 0.0 0.0 0.0 0.0 0.0 0.0 0.0 0.0 0.0 0.0 0.0 0.0 0.0 0.0 0.0 0.0 0.0 0.0 0.0 0.0 0.0 0.0 0.0 0.0 0.0 0.0 0.0 0.0 0.0
0.0 0.0 0.0 0.0 0.0 0.0 0.0 0.0 0.0 0.0 0.0 0.0 0.0 0.0 0.0 0.0 0.0 0.0 0.0 0.0 0.0 0.0 0.0 0.0 0.0 0.0 0.0 0.0 0.0 0.0 0.0 0.0 0.0 0.0 0.0 0.0 0.0 0.0 0.0 0.0 0.0 0.0 0.0 0.0 0.0 0.0 0.0 0.0 0.0 0.0 0.0 0.0 0.0 0.0 0.0 2.8 0.0 0.0 0.0 0.0 0.0 0.0 0.0 0.0 0.0 0.0 0.0 0.0 0.0 0.0 0.0 0.0 0.0 0.0 0.0 0.0 0.0 0.0 0.0 0.0 0.0 0.0 0.0 0.0 0.0 0.0 0.0 0.0
0.0 0.0 0.0 0.0 0.0 0.0 0.0 0.0 0.0 0.0 0.0 0.0 0.0 0.0 0.0 0.0 0.0 0.0 0.0 0.0 0.0 0.0 0.0 0.0 0.0 0.0 0.0 0.0 0.0 0.0 0.0 0.0 0.0 0.0 0.0 0.0 0.0 0.0 0.0 0.0 0.0 0.0 0.0 0.0 0.0 0.0 0.0 0.0 0.0 0.0 0.0 0.0 0.0 0.0 0.0 0.0 0.0 0.0 0.0 0.0 0.0 0.0 0.0 0.0 0.0 0.0 0.0 0.0 0.0 0.0 0.0 0.0 0.0 0.0 0.0 0.0 0.0 0.0 0.0 0.0 0.0 0.0 0.0 0.0 0.0 0.0 0.0 0.0
0.0 0.0 0.0 0.0 0.0 0.0 0.0 0.0 0.0 0.0 0.0 0.0 0.0 0.0 0.0 0.0 0.0 0.0 0.0 0.0 0.0 0.0 0.0 0.0 0.0 0.0 0.0 0.0 0.0 0.0 0.0 0.0 0.0 0.0 0.0 0.0 0.0 0.0 0.0 0.0 0.0 0.0 0.0 0.0 0.0 0.0 0.0 0.0 0.0 0.0 0.0 0.0 0.0 0.0 0.0 0.0 0.0 0.0 0.0 0.0 0.3 0.0 0.0 0.0 0.0 0.0 0.0 0.0 0.0 0.0 0.0 0.0 0.0 0.0 0.0 0.0 0.0 0.0 0.0 0.0 0.0 0.0 0.0 0.0 0.0 0.0 0.0 0.0
0.0 0.0 0.0 0.0 0.0 0.0 0.0 0.0 0.0 0.0 0.0 0.0 0.0 0.0 1.0 5.5 0.2 0.0 1.6 0.0 0.0 0.0 0.2 0.0 0.3 0.8 0.0 0.0 0.0 0.0 0.0 0.0 0.0 0.0 0.0 0.0 0.0 0.0 0.0 0.0 0.0 0.0 0.0 1.7 0.0 0.0 0.0 0.8 0.0 0.0 0.0 0.0 0.0 0.0 0.0 0.0 0.0 1.0 1.0 2.8 2.7 0.5 5.2 0.0 0.0 0.0 0.0 0.0 0.0 0.0 0.0 0.0 0.0 0.0 0.0 0.0 0.0 0.0 0.0 0.0 0.0 0.0 0.0 0.0 0.0 0.0 0.0 0.0
0.0 0.0 0.0 0.0 0.0 0.0 0.0 0.0 0.0 0.0 0.0 0.0 0.0 0.0 0.0 0.5 0.0 0.0 0.3 2.8 0.0 0.0 0.0 0.0 0.7 1.5 0.0 0.0 0.0 0.0 0.0 0.0 0.0 0.0 0.0 0.0 0.0 0.0 0.0 0.0 0.0 0.0 2.0 0.2 0.0 0.3 4.3 1.5 0.0 0.0 0.0 0.0 0.0 0.0 0.0 0.0 1.7 1.5 2.5 0.8 4.2 4.4 0.7 0.0 0.0 0.0 0.0 0.4 3.4 0.0 1.0 0.0 0.0 0.0 0.0 0.0 0.0 0.0 0.0 0.0 0.0 0.0 0.0 0.0 0.0 0.0 0.0 0.0
0.0 0.0 0.0 0.0 0.0 0.0 0.0 0.0 0.0 0.0 0.0 0.0 0.0 0.0 1.4 0.0 0.0 0.0 0.0 5.0 8.1 0.0 2.2 1.2 0.4 0.6 0.0 0.0 0.0 0.0 0.0 0.0 0.0 0.0 0.0 0.0 0.0 0.0 0.0 0.0 0.0 3.2 6.5 1.2 1.9 4.5 4.7 0.0 0.0 0.0 0.0 0.0 1.8 1.7 1.9 3.2 2.7 2.8 2.7 4.5 5.3 0.0 2.3 3.8 5.0 3.9 1.7 1.1 0.3 0.8 4.0 1.6 0.0 0.0 0.0 0.0 0.0 0.0 0.0 0.0 0.0 0.0 0.0 0.0 0.0 0.0 0.0 0.0
0.0 0.0 0.0 0.0 0.0 0.0 0.0 0.0 0.0 0.0 0.0 0.0 0.0 0.0 0.0 0.0 0.0 0.0 2.3 7.8 5.7 1.2 1.1 0.0 1.1 0.6 0.0 0.3 0.0 0.0 0.0 0.0 0.0 0.0 0.0 0.0 0.0 0.0 0.0 0.0 1.0 2.5 0.0 2.4 1.9 0.6 0.0 0.0 0.0 2.1 0.0 0.0 1.5 3.0 3.5 3.3 3.3 2.7 2.6 2.4 1.8 2.4 3.7 3.5 3.3 3.5 2.0 0.0 1.6 2.4 6.8 4.3 0.0 2.5 0.0 0.0 0.0 0.0 0.0 0.0 0.0 0.0 0.0 0.0 0.0 0.0 0.0 0.0
0.0 0.0 0.0 0.0 0.0 0.0 0.0 0.0 0.0 0.0 0.0 0.0 0.0 0.0 0.0 0.0 0.0 0.0 3.0 3.4 4.7 3.8 0.4 1.0 2.0 0.0 0.0 0.0 0.0 0.0 0.0 0.0 0.0 0.0 0.0 0.0 0.0 0.0 0.0 0.0 0.0 0.0 0.2 2.4 4.1 4.9 2.4 0.0 0.7 0.0 1.6 0.7 1.1 3.4 3.0 1.0 2.8 0.7 1.7 1.3 0.0 0.0 6.3 3.7 3.9 4.2 6.9 5.6 0.0 3.4 12.5 9.1 0.0 4.3 1.2 0.0 0.0 0.0 0.0 0.0 0.0 0.0 0.0 0.0 0.0 0.0 0.0 0.0
0.0 0.0 0.0 0.0 0.0 0.0 0.0 0.0 0.0 0.0 0.0 0.0 0.0 0.0 0.0 0.0 0.0 0.0 2.2 10.3 7.8 1.0 0.0 2.0 0.0 0.0 0.0 0.0 0.0 0.0 0.0 0.0 0.0 0.0 0.0 0.0 0.0 0.0 0.0 0.0 0.0 2.6 3.3 4.3 2.5 1.0 0.3 0.6 1.3 1.0 1.2 3.1 2.4 1.1 0.0 0.0 2.3 3.2 0.0 0.0 0.0 1.2 4.5 6.1 6.5 6.2 12.2 13.1 2.1 0.0 11.5 13.6 0.7 5.8 4.3 3.6 3.0 0.0 0.0 0.0 0.0 0.0 0.0 0.0 0.0 0.0 0.0 0.0
0.0 0.0 0.0 0.0 0.0 0.0 0.0 1.8 0.0 0.0 1.0 0.5 0.0 0.0 0.0 0.0 0.0 0.0 6.5 8.3 9.9 0.0 1.3 0.0 0.0 0.0 0.0 0.0 0.0 0.0 4.4 3.2 0.0 0.0 0.0 0.0 0.0 0.0 0.0 0.0 1.0 2.1 3.0 1.3 3.4 5.7 4.8 3.7 5.2 4.2 3.2 3.6 3.9 4.5 1.7 0.2 2.2 4.0 0.7 0.0 0.6 1.9 4.5 7.6 6.1 5.2 7.4 0.0 2.1 5.2 2.6 12.7 12.3 5.7 0.0 0.0 1.7 0.8 0.0 0.0 0.0 0.0 0.0 0.0 0.0 0.0 0.0 0.0
0.0 0.0 0.0 0.0 0.0 0.0 0.0 0.0 0.0 2.3 1.3 0.0 0.0 0.0 0.0 0.0 0.0 0.0 6.5 17.3 16.0 0.0 1.8 1.4 0.0 0.0 0.0 0.0 0.0 0.0 0.3 1.6 0.5 0.3 0.0 0.0 0.0 0.0 0.0 1.9 1.2 1.7 4.2 2.4 12.4 4.4 5.3 5.9 6.5 5.0 5.7 3.8 3.6 0.0 0.0 0.0 1.8 1.6 5.5 0.9 2.6 1.4 2.3 4.4 6.7 7.8 7.3 8.0 13.4 8.0 5.5 13.8 14.1 7.1 1.5 0.0 6.5 5.5 3.4 0.0 0.0 0.0 0.0 0.0 0.0 0.0 0.0 0.0
0.0 0.0 0.0 0.0 0.0 0.0 0.0 0.0 0.0 2.3 0.0 0.0 0.0 0.0 0.0 0.0 0.0 4.0 7.3 17.4 9.5 8.1 0.0 1.5 0.0 0.0 0.0 0.0 0.0 2.7 0.0 0.0 0.8 0.6 0.0 0.0 0.0 0.0 2.9 1.6 2.4 2.1 3.0 2.9 6.7 6.6 5.7 2.1 0.8 2.2 2.3 4.3 0.0 0.0 0.0 0.0 3.7 1.7 2.8 2.0 2.4 3.8 4.8 6.2 7.8 11.0 9.7 13.5 17.5 13.0 8.6 14.8 14.3 4.8 5.0 3.5 4.3 4.1 0.0 0.0 0.0 0.0 0.0 0.0 0.0 0.0 0.0 0.0
0.0 0.0 0.0 0.0 0.0 0.0 0.0 0.0 0.0 0.0 0.0 0.0 0.0 0.0 0.0 0.0 4.0 8.3 14.9 22.0 7.7 10.2 1.0 0.0 0.0 4.9 1.4 0.9 1.5 2.7 1.2 1.5 4.8 1.8 0.0 0.7 0.0 0.0 1.4 0.0 2.5 7.0 8.7 3.3 7.0 4.1 8.0 1.1 2.4 5.1 5.1 0.0 0.0 0.0 0.0 0.0 0.0 1.8 1.8 4.8 6.7 6.4 8.5 11.6 8.6 9.0 13.8 18.5 16.9 12.2 10.3 12.2 16.9 8.6 2.5 3.0 2.7 0.0 0.0 0.0 0.0 0.0 0.0 0.0 0.0 0.0 0.0 0.0
0.0 0.0 0.0 0.0 0.0 0.0 0.0 0.0 0.0 0.0 0.0 0.0 0.0 0.0 0.0 2.2 10.0 13.5 22.8 13.2 9.9 6.0 1.9 3.7 7.9 1.7 7.3 7.9 6.8 3.7 8.2 6.7 5.9 4.0 6.2 1.0 3.7 0.5 0.9 5.1 2.2 8.2 10.2 10.0 11.2 7.4 8.2 4.8 7.2 2.7 0.0 0.7 0.0 3.6 1.5 0.0 0.0 1.7 7.3 9.5 9.8 11.4 10.0 13.6 13.9 12.1 17.9 19.8 14.4 12.6 12.6 11.7 18.2 12.9 3.4 0.0 0.0 0.0 0.0 0.0 0.0 0.0 0.0 0.0 0.0 0.0 0.0 0.0
0.0 0.0 0.0 0.0 0.0 0.0 2.6 1.2 0.0 0.0 0.0 0.0 0.0 0.7 1.8 10.5 8.9 14.9 15.4 0.0 12.5 9.5 9.8 11.3 10.6 10.6 11.0 10.4 13.7 9.5 8.7 7.7 8.9 9.8 6.0 5.0 7.1 10.0 7.3 11.0 5.0 14.8 13.7 12.7 12.9 7.5 12.3 10.7 4.2 3.7 0.2 0.3 3.7 5.1 3.7 7.1 3.4 5.3 9.0 11.4 14.8 17.0 14.0 19.4 15.6 21.4 20.1 20.3 13.3 10.8 12.2 15.6 15.3 8.2 0.0 0.0 0.0 0.0 0.0 0.0 0.0 0.0 0.0 0.0 0.0 0.0 0.0 0.0
0.0 0.0 0.0 0.0 0.0 0.0 0.0 0.0 0.0 0.0 0.0 0.0 0.0 0.0 8.3 14.0 21.5 14.4 15.2 14.7 12.5 12.2 12.0 7.7 12.4 12.6 13.6 13.9 13.7 15.7 11.6 13.0 5.6 10.9 8.0 9.0 11.2 7.2 5.3 5.6 12.7 11.5 16.1 10.5 14.7 13.9 12.3 6.0 6.3 6.3 4.7 1.3 1.4 11.0 9.3 13.8 8.7 8.9 12.5 13.4 16.0 19.5 20.1 22.8 18.5 16.5 16.0 14.3 12.2 13.2 7.8 15.4 10.5 3.6 0.0 0.0 0.0 0.0 0.0 0.0 0.0 0.0 0.0 0.0 0.0 0.0 0.0 0.0
0.0 0.0 0.0 0.0 0.0 0.0 0.0 0.0 0.0 0.0 0.0 0.0 1.0 5.1 12.3 17.5 16.8 13.0 15.8 13.5 14.7 11.4 11.1 12.5 12.7 15.0 15.9 12.4 13.3 13.6 12.0 12.0 12.7 9.6 7.5 11.2 11.2 13.6 9.8 6.5 9.4 12.5 12.2 13.6 15.4 14.4 18.4 15.9 13.4 11.3 12.3 0.7 4.0 3.6 3.5 5.3 6.2 9.0 6.3 11.8 14.1 15.1 18.9 22.6 19.3 21.8 19.8 16.1 12.5 12.0 14.6 19.3 14.4 10.8 0.0 0.0 0.0 0.0 0.0 0.0 0.0 0.0 0.0 0.0 0.0 0.0 0.0 0.0
0.0 0.0 0.0 0.0 0.0 0.0 0.0 0.0 0.2 0.7 0.0 1.2 3.5 9.2 17.7 16.9 16.5 16.3 13.8 16.1 14.4 11.8 12.1 12.0 13.2 13.3 13.6 15.6 16.0 16.4 12.2 13.6 13.0 12.6 10.3 12.4 13.2 12.8 13.0 11.5 7.6 7.2 11.3 16.1 13.5 15.5 16.6 16.0 11.3 5.5 5.6 2.3 6.5 0.3 0.0 3.6 5.4 6.1 6.2 6.5 13.0 15.2 7.5 17.5 14.6 15.5 16.9 16.6 16.8 16.6 15.6 8.7 5.8 0.0 0.0 0.0 0.0 0.0 0.0 0.0 0.0 0.0 0.0 0.0 0.0 0.0 0.0 0.0
0.0 0.0 0.0 0.0 0.0 0.0 0.0 0.0 1.3 0.0 0.0 1.7 8.9 15.1 15.0 15.4 15.0 16.3 13.8 10.5 11.6 13.6 13.8 9.0 15.3 14.4 15.1 16.1 14.5 17.2 10.1 13.5 12.4 13.7 13.6 13.8 13.2 15.7 11.0 12.8 14.2 12.2 14.6 16.3 12.8 20.6 15.3 18.6 12.9 10.5 4.0 6.8 3.0 1.3 3.0 0.0 17.0 8.3 10.2 15.8 12.8 3.4 9.5 14.5 14.5 14.0 16.3 17.3 20.4 12.0 12.5 7.1 0.0 0.0 0.0 0.0 0.0 0.0 0.0 0.0 0.0 0.0 0.0 0.0 0.0 0.0 0.0 0.0
0.0 0.0 1.3 0.0 0.0 0.0 0.0 0.3 0.0 0.0 0.0 4.7 12.2 15.4 14.7 17.1 11.1 11.1 9.0 12.3 12.7 12.4 12.5 16.3 14.8 17.1 17.1 16.6 16.8 16.3 14.5 11.1 14.9 15.1 16.2 13.6 15.5 14.8 15.9 14.0 11.3 13.1 13.5 14.8 18.2 12.5 19.5 17.7 13.2 13.0 13.7 4.7 0.7 2.4 3.0 3.1 3.8 10.9 16.1 13.1 3.5 5.5 9.0 14.7 20.4 17.3 18.2 21.6 20.3 12.9 16.7 13.5 12.2 16.5 0.0 0.0 0.0 0.0 0.0 0.0 0.0 0.0 0.0 0.0 0.0 0.0 0.0 0.0
0.8 2.9 2.8 2.3 0.0 0.0 0.0 0.0 0.0 0.0 2.9 9.5 14.8 11.7 16.6 14.9 9.7 10.3 8.7 11.3 11.6 10.5 15.2 15.1 15.9 15.3 18.1 18.4 16.2 16.6 14.6 16.0 14.9 15.0 17.4 14.1 18.1 10.9 14.1 16.1 11.8 14.6 12.5 12.1 16.4 16.0 15.2 22.1 14.9 13.3 10.2 6.4 4.7 5.9 8.8 2.3 0.8 11.3 12.5 5.5 15.4 19.6 19.7 16.3 17.6 23.6 23.1 23.5 21.2 16.6 14.4 13.3 11.5 12.3 1.0 1.4 0.0 0.0 0.0 0.0 0.0 0.0 0.0 0.0 0.0 0.0 0.0 0.0
1.2 5.0 6.7 1.8 0.0 0.0 0.0 0.0 0.0 1.4 6.6 15.3 15.4 15.0 15.0 15.6 10.4 11.8 8.4 9.8 8.5 13.4 15.6 13.4 16.2 14.2 16.9 17.1 17.5 17.3 16.8 18.3 14.9 17.2 18.9 15.4 19.4 12.3 15.3 12.3 16.3 13.6 13.1 13.1 17.3 15.2 15.7 21.9 19.5 14.7 12.7 9.8 12.0 12.6 18.7 13.6 4.6 3.0 4.8 11.7 8.8 13.8 17.5 18.5 17.5 17.4 17.3 23.0 20.5 21.3 15.5 18.5 8.3 6.7 1.2 1.0 0.0 0.0 0.0 0.0 0.0 0.0 0.0 0.0 0.0 0.0 0.0 0.0
7.0 8.2 8.9 0.0 0.0 0.0 0.0 0.0 1.7 5.5 12.3 15.3 14.5 15.5 14.5 19.1 12.9 9.5 8.7 8.7 12.5 13.3 13.7 16.4 12.9 16.9 15.5 16.6 16.8 18.2 17.2 17.6 17.1 17.8 17.1 16.5 17.5 9.8 19.0 12.4 16.2 14.4 12.8 13.9 16.2 13.6 20.8 14.6 24.7 15.7 16.7 13.8 18.8 13.1 17.9 15.3 19.2 15.5 14.5 16.0 14.4 15.3 12.7 14.0 15.3 17.7 19.8 21.4 20.8 21.2 20.9 16.1 4.8 2.0 1.3 0.0 0.0 0.0 0.0 1.5 0.2 0.0 0.0 0.0 0.0 0.0 0.0 0.0
5.8 13.3 10.6 0.0 0.0 0.0 0.0 1.2 10.5 14.1 15.2 14.4 17.3 19.9 17.6 15.6 12.4 10.8 8.3 7.5 12.3 9.1 14.0 14.4 15.3 17.0 16.6 17.9 17.2 14.5 20.2 17.5 17.6 18.3 17.4 17.7 15.5 19.7 16.1 18.4 15.1 17.7 13.3 15.2 15.0 14.7 18.9 18.4 21.8 18.1 18.1 17.6 16.6 12.0 15.6 14.3 14.7 16.2 16.5 18.5 16.3 18.3 20.0 21.8 23.0 14.0 18.1 19.6 23.3 20.8 23.1 14.5 5.0 5.3 3.4 2.0 3.2 3.7 2.6 4.2 3.2 1.8 0.1 0.0 0.0 0.0 0.0 0.0
10.7 15.1 11.2 0.0 0.0 0.0 3.9 13.4 13.9 14.0 15.0 16.8 15.9 16.6 16.2 9.0 13.9 13.0 12.0 9.7 12.5 13.6 9.7 16.8 14.8 17.4 17.0 17.5 16.9 19.0 18.0 20.2 18.4 18.5 17.3 19.0 16.3 17.5 16.6 16.0 16.2 15.9 17.3 20.0 17.9 15.6 16.8 18.3 20.5 22.9 20.2 19.4 15.2 12.8 12.2 11.7 12.6 15.0 15.4 17.6 15.0 16.2 17.0 21.2 25.3 21.0 16.8 18.1 16.6 18.0 20.5 19.1 7.7 9.3 5.1 5.5 4.8 4.6 3.7 4.0 5.5 4.1 2.7 0.2 0.0 0.0 0.0 0.0
12.6 14.2 0.5 0.1 0.0 1.2 9.7 14.8 14.2 15.0 16.1 15.3 13.2 13.4 12.0 13.1 14.8 13.0 14.9 12.7 16.4 13.2 16.8 15.9 17.0 19.1 16.1 20.1 19.2 19.4 17.5 20.7 18.5 20.0 18.0 18.6 18.0 16.9 16.3 17.0 15.5 17.1 15.8 19.2 16.2 17.2 15.2 23.6 23.3 21.5 18.1 16.9 15.0 12.7 13.3 13.6 15.2 16.6 15.1 15.2 16.2 19.1 17.8 20.4 21.4 20.2 22.5 21.4 20.6 20.2 22.0 18.1 8.8 6.3 4.8 3.8 2.9 1.3 0.5 1.8 7.7 8.4 1.8 0.8 0.5 0.9 0.4 0.0
12.7 13.3 10.2 0.7 0.1 1.7 12.7 17.2 17.1 17.3 16.4 16.5 15.4 15.5 11.3 14.6 14.5 15.3 15.1 14.4 16.9 17.0 17.9 17.9 17.1 14.7 19.4 15.9 19.1 20.5 17.6 25.2 18.2 21.5 21.9 17.3 20.2 15.1 16.1 17.0 15.0 19.2 17.3 21.1 20.6 18.9 22.5 20.6 23.7 28.4 25.1 22.8 20.1 16.9 17.6 16.4 17.3 17.9 18.0 16.9 17.6 17.3 17.9 18.8 18.3 18.7 23.2 21.9 20.3 21.5 26.3 18.7 9.6 4.0 3.8 3.2 2.2 3.5 2.6 1.9 2.2 6.7 4.1 3.7 2.3 1.7 1.3 1.0
13.3 12.1 13.0 8.0 2.0 5.3 15.0 14.1 16.1 17.0 16.4 17.6 17.9 18.4 17.0 15.2 14.2 14.8 15.7 16.2 14.9 16.7 17.9 19.1 17.2 17.0 18.1 16.7 21.3 18.1 18.5 19.1 23.1 18.3 19.0 19.1 19.0 13.3 15.8 16.5 15.0 17.9 15.4 15.2 15.2 14.5 21.6 22.6 22.5 27.9 29.8 31.4 31.2 28.9 26.0 22.4 21.5 18.8 18.5 19.0 18.2 18.9 20.0 20.8 24.0 21.3 24.3 20.9 19.1 21.9 21.9 15.1 8.4 4.1 3.5 3.9 4.3 5.3 3.2 3.6 3.5 3.5 6.0 6.3 5.4 4.4 3.3 2.7
13.8 18.6 13.5 13.3 12.6 12.1 13.1 12.5 14.2 16.5 17.5 18.5 20.2 19.4 18.7 19.1 15.4 16.1 15.3 17.1 14.1 15.5 15.8 16.6 15.8 16.4 18.9 19.3 21.5 23.4 21.3 17.5 20.0 22.8 19.1 20.5 18.4 17.0 17.7 17.2 17.1 17.3 16.0 14.4 14.7 16.0 22.0 20.4 21.8 23.7 25.5 26.9 24.5 22.8 19.4 18.5 20.0 23.5 21.6 19.5 19.8 18.5 18.1 18.9 19.9 22.5 25.1 21.5 21.5 20.0 19.2 18.9 16.5 13.3 10.3 9.7 7.3 8.5 8.3 7.0 8.5 7.9 6.6 6.3 5.4 5.5 5.0 4.3
12.9 17.5 17.0 18.0 14.2 14.5 16.5 14.1 16.0 16.6 18.6 16.6 21.0 22.7 24.4 22.0 19.6 19.1 13.0 22.0 14.2 17.5 17.6 17.0 18.6 20.8 22.1 22.9 24.1 24.0 21.7 22.5 18.5 21.7 22.7 20.7 18.5 18.7 18.7 18.8 19.0 16.6 15.0 15.8 14.9 18.6 22.0 23.9 23.2 23.4 23.9 23.5 22.2 22.7 20.6 19.6 23.1 21.6 21.7 21.5 18.9 19.0 18.5 20.5 22.7 24.6 19.0 22.7 27.1 19.4 18.8 20.4 18.3 14.2 12.7 11.4 9.8 9.6 9.9 10.8 11.6 10.7 9.6 8.7 7.0 5.7 5.7 4.8
16.8 14.2 14.2 13.5 17.6 18.4 17.3 16.3 16.5 16.6 17.2 17.6 19.0 17.0 19.9 20.6 21.0 22.6 17.7 17.0 18.1 18.6 21.9 20.9 22.3 20.6 20.9 21.0 22.6 25.4 26.4 26.7 27.2 26.7 24.8 24.6 25.5 24.5 22.2 20.1 24.8 17.2 16.1 18.5 16.3 20.5 23.0 25.5 24.3 23.3 24.7 22.9 21.9 22.1 21.3 22.2 22.3 22.2 21.8 21.3 21.4 19.4 19.3 22.2 22.4 20.6 20.5 23.8 25.8 20.3 20.0 20.6 17.5 14.8 12.9 12.6 13.0 12.8 13.6 13.8 13.0 12.5 11.7 10.4 10.6 9.9 8.8 7.8
12.5 13.5 13.8 13.2 17.0 15.0 16.4 16.0 15.9 16.9 17.8 17.1 18.2 18.2 20.9 20.2 20.9 18.1 19.1 19.7 19.1 22.1 17.6 24.2 19.9 20.0 19.7 20.3 21.6 23.3 22.1 25.6 25.2 21.8 23.7 23.4 22.5 22.3 23.7 21.8 19.4 17.3 18.1 20.3 19.5 19.2 21.9 24.2 24.0 23.8 25.7 24.2 23.2 22.5 22.1 22.9 22.4 22.6 23.1 22.1 20.9 20.1 20.7 20.1 20.9 19.8 20.3 21.6 20.2 20.1 19.5 19.6 16.5 15.6 16.4 17.6 15.5 14.4 14.8 13.9 13.4 14.0 14.1 13.5 13.5 13.5 13.4 13.1
14.9 15.4 15.9 14.4 15.2 16.3 16.0 16.0 16.4 17.1 19.0 16.3 20.0 18.1 18.4 19.0 20.1 17.8 17.4 21.6 23.5 19.9 18.0 21.7 20.8 18.8 19.3 21.1 21.8 23.5 22.5 21.4 22.4 24.6 20.7 21.9 22.4 21.2 23.1 21.9 22.6 18.5 18.6 21.0 20.0 20.4 22.2 25.5 21.8 23.4 25.5 25.5 23.6 22.1 21.5 22.1 22.8 24.3 22.5 21.8 20.9 21.1 20.6 20.3 20.1 19.7 19.1 20.1 18.7 18.8 19.5 19.5 14.8 15.3 16.6 16.3 15.7 15.5 17.0 17.3 16.6 16.2 16.1 16.0 16.0 16.0 15.5 15.2
10.3 9.2 12.4 16.0 18.2 16.3 16.0 16.9 17.9 17.9 19.3 17.9 19.0 18.2 18.1 18.3 19.8 17.4 19.5 17.0 19.7 21.7 18.8 20.9 18.4 20.8 21.5 22.8 22.5 23.0 20.5 20.3 20.3 20.5 19.7 20.6 24.3 20.0 22.6 24.2 21.2 23.1 21.5 22.5 21.2 22.7 21.9 24.7 22.5 24.8 27.8 28.1 24.9 24.5 23.7 22.7 23.2 24.3 24.4 23.0 22.5 22.5 24.1 21.8 22.6 19.7 20.4 21.9 19.6 19.0 20.5 19.7 16.3 16.7 16.3 18.1 18.2 19.3 20.2 19.9 19.6 18.5 17.8 17.8 18.4 18.5 18.0 17.6
10.9 11.7 12.9 13.9 18.7 15.0 17.7 15.8 16.6 18.3 20.6 17.6 18.2 18.4 19.3 19.5 18.2 18.9 22.8 17.2 17.4 16.3 19.1 19.2 20.2 21.4 22.9 23.4 23.0 20.8 18.5 18.1 18.6 18.3 18.7 19.3 20.0 21.0 20.0 20.5 20.4 22.0 22.7 22.8 21.0 23.3 23.0 24.5 26.3 26.1 29.4 29.5 25.8 24.4 25.3 25.0 26.1 28.6 27.5 24.4 22.2 21.1 20.5 19.5 19.0 18.3 18.3 18.7 21.7 23.1 21.1 20.7 20.4 17.3 20.0 21.0 21.5 21.4 21.6 21.5 21.2 20.3 19.3 19.0 19.6 19.7 19.4 19.1